Location: Berg
(47.2344°N, 9.5296°E)
Time: 11:04:40
(UTC+00:00)

CZ-4C R/B - Visible Passes

Search period start: 14 May 2021 00:00
Search period end: 24 May 2021 00:00
Orbit: 612 x 1390 km, 63.4° (Epoch: 14 May)

Date Brightness Start Highest point End Pass type
(mag) Time Alt. Az. Time Alt. Az. Time Alt. Az.
14 May 3.5 20:22:37 10° NW 20:29:43 53° WSW 20:36:44 14° SSE visible
14 May 5.1 22:14:35 10° W 22:17:11 12° WSW 22:19:52 10° WSW visible
15 May 4.4 20:56:37 10° WNW 21:02:54 29° WSW 21:09:35 11° SSW visible
16 May 3.4 19:40:58 10° NW 19:48:09 61° WSW 19:56:24 10° SSE visible
16 May 5.1 21:31:50 10° WNW 21:35:48 15° WSW 21:39:58 10° SW visible
17 May 4.2 20:14:49 10° NW 20:21:25 34° WSW 20:28:45 10° S visible
18 May 5.0 20:49:33 10° WNW 20:54:23 18° WSW 20:59:33 10° SW visible
19 May 4.1 19:33:04 10° NW 19:39:54 40° WSW 19:47:34 10° S visible
20 May 4.9 20:07:29 10° WNW 20:12:57 22° WSW 20:18:52 10° SSW visible
22 May 4.9 19:25:32 10° WNW 19:31:30 26° WSW 19:38:01 10° SSW visible
23 May 5.4 20:01:28 10° W 20:04:20 12° WSW 20:07:17 10° SW visible
